Weather History for Durant, OK

Change the Weather History Date:

Monday, July 28, 2014

  Actual Average (KADM) Record (KADM)
Temperature  
Mean Temperature 84 °F -  
Max Temperature 91 °F 93 °F 105 °F (1998)
Min Temperature 77 °F 72 °F 66 °F (2008)
Cooling Degree Days 19    
Growing Degree Days 34 (Base 50)    
Moisture  
Dew Point 67 °F    
Average Humidity 60    
Maximum Humidity 84    
Minimum Humidity 31    
Precipitation  
Precipitation 0.00 in - - ()
Sea Level Pressure  
Sea Level Pressure 30.12 in    
Wind  
Wind Speed 8 mph (NNE)    
Max Wind Speed 15 mph    
Max Gust Speed 21 mph    
Visibility 10 miles    
Events Rain    
Averages and records for this station are not official NWS values.
T = Trace of Precipitation, MM = Missing Value Source: NWS Daily Summary

Daily Weather History Graph

Daily Weather History Graph

Search for Another Location

Airport:

Trip Planner

Search our weather history database for the weather conditions in past years. The results will help you decide how hot, cold, wet, or windy it might be!

Date:

Astronomy

Jul. 28, 2014 Rise Set
Actual Time 6:34 AM CDT 8:29 PM CDT
Civil Twilight 6:06 AM CDT 8:56 PM CDT
Nautical Twilight 5:33 AM CDT 9:30 PM CDT
Astronomical Twilight 4:57 AM CDT 10:06 PM CDT
Moon 8:09 AM CDT (7/28) 9:20 PM CDT (7/28)
Length of Visible Light 14h 50m
Length of Day
13h 55m
Waxing Crescent, 3% of the Moon is Illuminated
Jul 28
Waxing Crescent
Aug 3
First Quarter
Aug 10
Full
Aug 17
Last Quarter
Aug 25
New

Hourly Weather History & Observations

Time (CDT) Temp. Heat Index Dew Point Humidity Pressure Visibility Wind Dir Wind Speed Gust Speed Precip Events Conditions
12:15 AM 82.4 °F 90.9 °F 77.0 °F 84% 30.05 in 10.0 mi East 5.8 mph - N/A   Clear
12:35 AM 82.4 °F 89.5 °F 75.2 °F 79% 30.05 in 10.0 mi East 3.5 mph - N/A   Clear
12:55 AM 80.6 °F 86.2 °F 75.2 °F 84% 30.05 in 10.0 mi ENE 4.6 mph - N/A   Clear
1:15 AM 80.6 °F 86.2 °F 75.2 °F 84% 30.05 in 10.0 mi Calm Calm - N/A   Clear
1:35 AM 80.6 °F 86.2 °F 75.2 °F 84% 30.05 in 10.0 mi Calm Calm - N/A   Clear
2:15 AM 80.6 °F 86.2 °F 75.2 °F 84% 30.05 in 10.0 mi North 5.8 mph - N/A   Clear
2:35 AM 80.6 °F 86.2 °F 75.2 °F 84% 30.06 in 10.0 mi North 6.9 mph - N/A   Clear
2:55 AM 80.6 °F 86.2 °F 75.2 °F 84% 30.07 in 10.0 mi NNE 8.1 mph - N/A   Clear
3:15 AM 80.6 °F 86.2 °F 75.2 °F 84% 30.06 in 10.0 mi North 5.8 mph - N/A   Clear
3:35 AM 80.6 °F 85.4 °F 73.4 °F 79% 30.07 in 10.0 mi NNW 5.8 mph - N/A   Clear
3:55 AM 80.6 °F 86.2 °F 75.2 °F 84% 30.07 in 10.0 mi NNW 8.1 mph - N/A Rain Light Rain
4:15 AM 80.6 °F 86.2 °F 75.2 °F 84% 30.09 in 10.0 mi NNW 8.1 mph - N/A Rain Light Rain
4:35 AM 80.6 °F 84.6 °F 71.6 °F 74% 30.09 in 10.0 mi NW 11.5 mph - N/A   Overcast
4:55 AM 80.6 °F 83.9 °F 69.8 °F 70% 30.08 in 10.0 mi North 9.2 mph - N/A   Mostly Cloudy
5:15 AM 80.6 °F 83.2 °F 68.0 °F 65% 30.09 in 10.0 mi NNW 13.8 mph - N/A   Mostly Cloudy
5:35 AM 80.6 °F 83.2 °F 68.0 °F 65% 30.10 in 10.0 mi NNW 10.4 mph - N/A   Mostly Cloudy
5:55 AM 80.6 °F 82.7 °F 66.2 °F 61% 30.10 in 10.0 mi NW 10.4 mph - N/A   Scattered Clouds
6:15 AM 78.8 °F - 64.4 °F 61% 30.09 in 10.0 mi NNE 12.7 mph - N/A   Clear
6:35 AM 78.8 °F - 66.2 °F 65% 30.10 in 10.0 mi NNE 10.4 mph - N/A   Clear
6:55 AM 78.8 °F - 66.2 °F 65% 30.11 in 10.0 mi NNE 12.7 mph - N/A   Clear
7:15 AM 78.8 °F - 66.2 °F 65% 30.11 in 10.0 mi NNE 10.4 mph - N/A   Clear
7:35 AM 78.8 °F - 68.0 °F 69% 30.12 in 10.0 mi NW 10.4 mph - N/A   Clear
7:55 AM 80.6 °F 83.2 °F 68.0 °F 65% 30.13 in 10.0 mi North 9.2 mph - N/A   Clear
8:15 AM 80.6 °F 83.2 °F 68.0 °F 65% 30.14 in 10.0 mi NNE 12.7 mph 17.3 mph N/A   Clear
8:35 AM 80.6 °F 83.2 °F 68.0 °F 65% 30.14 in 10.0 mi NNE 11.5 mph - N/A   Clear
8:55 AM 80.6 °F 83.2 °F 68.0 °F 65% 30.15 in 10.0 mi NE 12.7 mph - N/A   Clear
9:35 AM 82.4 °F 85.4 °F 68.0 °F 62% 30.17 in 10.0 mi NNE 12.7 mph - N/A   Clear
9:55 AM 84.2 °F 87.3 °F 68.0 °F 58% 30.17 in 10.0 mi NE 11.5 mph - N/A   Clear
10:15 AM 84.2 °F 87.3 °F 68.0 °F 58% 30.18 in 10.0 mi NNE 11.5 mph - N/A   Clear
10:35 AM 86.0 °F 89.4 °F 68.0 °F 55% 30.19 in 10.0 mi NE 11.5 mph - N/A   Clear
10:55 AM 86.0 °F 89.4 °F 68.0 °F 55% 30.19 in 10.0 mi ENE 12.7 mph - N/A   Clear
11:15 AM 87.8 °F 90.4 °F 66.2 °F 49% 30.19 in 10.0 mi NE 15.0 mph - N/A   Clear
11:35 AM 87.8 °F 91.4 °F 68.0 °F 52% 30.19 in 10.0 mi NE 12.7 mph 17.3 mph N/A   Clear
11:55 AM 87.8 °F 91.4 °F 68.0 °F 52% 30.19 in 10.0 mi ENE 8.1 mph - N/A   Clear
12:15 PM 89.6 °F 92.2 °F 66.2 °F 46% 30.19 in 10.0 mi ENE 11.5 mph - N/A   Clear
12:35 PM 89.6 °F 91.1 °F 64.4 °F 43% 30.18 in 10.0 mi NNE 12.7 mph 18.4 mph N/A   Scattered Clouds
12:55 PM 89.6 °F 91.1 °F 64.4 °F 43% 30.18 in 10.0 mi ENE 11.5 mph - N/A   Scattered Clouds
1:15 PM 91.4 °F 91.4 °F 60.8 °F 36% 30.17 in 10.0 mi ENE 8.1 mph - N/A   Scattered Clouds
1:35 PM 91.4 °F 92.1 °F 62.6 °F 38% 30.17 in 10.0 mi NE 6.9 mph - N/A   Scattered Clouds
1:55 PM 91.4 °F 92.1 °F 62.6 °F 38% 30.17 in 10.0 mi NNW 11.5 mph 16.1 mph N/A   Clear
2:15 PM 91.4 °F 93.2 °F 64.4 °F 41% 30.17 in 10.0 mi NNE 10.4 mph - N/A   Clear
2:35 PM 91.4 °F 92.1 °F 62.6 °F 38% 30.17 in 10.0 mi North 11.5 mph 18.4 mph N/A   Clear
3:15 PM 91.4 °F 91.4 °F 60.8 °F 36% 30.17 in 10.0 mi NNW 12.7 mph 19.6 mph N/A   Clear
3:35 PM 91.4 °F 89.9 °F 57.2 °F 31% 30.17 in 10.0 mi NNW 15.0 mph - N/A   Clear
3:55 PM 89.6 °F 90.1 °F 62.6 °F 40% 30.16 in 10.0 mi NNW 9.2 mph 17.3 mph N/A   Clear
4:15 PM 89.6 °F 89.5 °F 60.8 °F 38% 30.15 in 10.0 mi NNW 15.0 mph 20.7 mph N/A   Clear
4:35 PM 87.8 °F 88.5 °F 62.6 °F 43% 30.14 in 10.0 mi NNW 15.0 mph - N/A   Clear
4:55 PM 86.0 °F 86.6 °F 62.6 °F 45% 30.13 in 10.0 mi North 12.7 mph - N/A   Clear
5:15 PM 86.0 °F 86.1 °F 60.8 °F 43% 30.12 in 10.0 mi NW 12.7 mph - N/A   Clear
5:35 PM 86.0 °F 86.6 °F 62.6 °F 45% 30.11 in 10.0 mi NW 11.5 mph - N/A   Clear
5:55 PM 86.0 °F 86.6 °F 62.6 °F 45% 30.10 in 10.0 mi NNW 10.4 mph - N/A   Clear
6:15 PM 86.0 °F 86.6 °F 62.6 °F 45% 30.10 in 10.0 mi North 10.4 mph - N/A   Clear
6:35 PM 86.0 °F 86.6 °F 62.6 °F 45% 30.10 in 10.0 mi NNE 9.2 mph - N/A   Clear
6:55 PM 84.2 °F 85.0 °F 62.6 °F 48% 30.09 in 10.0 mi NE 9.2 mph - N/A   Clear
7:15 PM 84.2 °F 85.0 °F 62.6 °F 48% 30.09 in 10.0 mi NNE 8.1 mph - N/A   Clear
7:35 PM 82.4 °F 83.4 °F 62.6 °F 51% 30.10 in 10.0 mi NE 4.6 mph - N/A   Clear
7:55 PM 82.4 °F 83.9 °F 64.4 °F 54% 30.10 in 10.0 mi NE 5.8 mph - N/A   Clear
8:15 PM 82.4 °F 83.9 °F 64.4 °F 54% 30.10 in 10.0 mi NNE 4.6 mph - N/A   Clear
8:55 PM 80.6 °F 82.3 °F 64.4 °F 58% 30.12 in 10.0 mi Calm Calm - N/A   Scattered Clouds
9:15 PM 78.8 °F - 64.4 °F 61% 30.12 in 10.0 mi ENE 3.5 mph - N/A   Clear
9:55 PM 77.0 °F - 64.4 °F 65% 30.13 in 10.0 mi Calm Calm - N/A   Clear
10:15 PM 78.8 °F - 66.2 °F 65% 30.14 in 10.0 mi Calm Calm - N/A   Clear
10:35 PM 77.0 °F - 68.0 °F 74% 30.14 in 10.0 mi Calm Calm - N/A   Clear
10:55 PM 77.0 °F - 68.0 °F 74% 30.14 in 10.0 mi Calm Calm - N/A   Clear
11:15 PM 77.0 °F - 68.0 °F 74% 30.14 in 10.0 mi Calm Calm - N/A   Clear
11:35 PM 77.0 °F - 66.2 °F 69% 30.14 in 10.0 mi Calm Calm - N/A   Scattered Clouds
11:55 PM 77.0 °F - 66.2 °F 69% 30.14 in 10.0 mi Calm Calm - N/A   Scattered Clouds